Weather Roundup
Issued by NWS Chicago, IL

Home | Current Version | Previous Version | Text Only | Print | Product List | Glossary On
Versions: 1 2 3 4 5 6 7 8 9 10 11 12 13 14 15 16 17 18 19 20 21 22 23 24 25 26 27 28 29 30 31 32 33 34 35 36 37 38 39 40 41 42 43 44 45 46 47 48 49 50
000
NZUS59 KLOT 010721
HRRLOT

CHICAGO AREA WEATHER ROUNDUP
NATIONAL WEATHER SERVICE CHICAGO/ROMEOVILLE IL
200 AM CDT SAT AUG 01 2015

NOTE: "FAIR" INDICATES FEW OR NO CLOUDS BELOW 12,000 FEET WITH NO
SIGNIFICANT WEATHER AND/OR OBSTRUCTIONS TO VISIBILITY.

* THESE STATIONS ARE NOT UNDER NWS QUALITY CONTROL. THEY ALSO MAY NOT
  REPORT WEATHER SUCH AS PRECIPITATION OR FOG.

ILZ005-006-012>014-019>023-010800-
NORTHEAST ILLINOIS

CITY           SKY/WX    TMP DP  RH WIND       PRES   REMARKS
OHARE          CLEAR     68  52  56 W9        29.99S
MIDWAY         CLEAR     71  51  49 W7        29.99S
AURORA         CLEAR     58  54  86 W3        30.01S
LANSING*       CLEAR     65  53  66 W5        29.99S
JOLIET*        CLEAR     65  57  75 CALM      30.01S
WAUKEGAN       CLEAR     61  53  75 SW3       29.98R
DUPAGE AIRPORT CLEAR     63  53  70 W7        30.00S
WHEELING       CLEAR     67  50  54 CALM      30.00R
KANKAKEE*      CLEAR     63  60  90 W5        30.02S
MORRIS*        CLEAR     60  57  91 NW7       30.00F
LEWIS AIRPORT* CLEAR     63  55  75 W6        30.01S
NORTHERLY IS     N/A     73  50  44 W8          N/A
$$

WIZ051-052-058>065-066-070>072-010800-
SOUTHEAST WISCONSIN

CITY           SKY/WX    TMP DP  RH WIND       PRES   REMARKS
MILWAUKEE      PTCLDY    69  51  52 W3        29.96F
KENOSHA*       CLEAR     60  52  74 W5        29.98S
RACINE*        CLEAR     65  52  62 W3        29.98F
BURLINGTON     CLEAR     58  51  79 SW3       29.99R
WAUKESHA       CLEAR     61  50  67 W7        29.99S
WEST BEND      CLEAR     63  50  63 W5        29.96F
$$

INZ001>003-010>013-019-020-010800-
NORTHWEST INDIANA

CITY           SKY/WX    TMP DP  RH WIND       PRES   REMARKS
GARY*          CLEAR     62  58  84 W5        29.99S
MICHIGAN CITY* NOT AVBL
RENSSELAER*    NOT AVBL
VALPARAISO     CLEAR     64  55  72 W3        30.00R
$$

LMZ740>746-010800-
SOUTHERN LAKE MICHIGAN

STATION/POSITION TIME  SKY/WX   TEMP WIND        PRES    VSBY
                                AIR  DIR/SP/G
                 (UTC)          (F)  (DEG/KT/KT) (MB)    (MI)
HARRISON CRIB    0700            73  300/ 13/ 14   N/A
BURNHAM HARBOR   0700            73  260/  6/  9   N/A
CALUMET HARBOR   0600            73  240/  3/  5   N/A
BURNS HARBOR     0600            75  300/ 10/ 11 1015.6R
MICHIGAN CITY    0700            74  280/ 14/ 15   N/A
$$

ABBREVIATIONS USED IN REMARKS
   TC - TEMPERATURE IN CELSIUS
  WCI - WIND CHILL INDEX
   HX - HEAT INDEX
  VSB - VISIBILITY
$$


USA.gov is the U.S. government's official web portal to all federal, state and local government web resources and services.